When you browse on this site, cookies collect data to enhance your experience and personalize the content and advertising you see.
Visit our Privacy Policy to learn more. By continuing to use the site, you agree to this use of cookies and data.
  • Em Portugal
  • Lista de países
  • Para 7 dias
  • Temperatura da água
  • Mapas de satélite
  • Mapa do tempo
  • Widgets de tempo
  • user-avatar
    Iniciar Sessão

    Previsão horária em Trzebiec

    Hoje, 26 Junho, Quarta-feira

    Tempo Temperatura Precipitação Vento Pressão Humidade
    00:00 +23°C° 0 mm 2 m/s 761 mmHg 92%
    01:00 +22°C° 0 mm 3 m/s 761 mmHg 88%
    02:00 +22°C° 0 mm 3 m/s 760 mmHg 89%
    03:00 +22°C° 0 mm 3 m/s 760 mmHg 90%
    04:00 +21°C° 0 mm 3 m/s 759 mmHg 91%
    05:00 +24°C° 0 mm 3 m/s 759 mmHg 86%
    06:00 +26°C° 0 mm 3 m/s 759 mmHg 81%
    07:00 +27°C° 0 mm 3 m/s 759 mmHg 76%
    08:00 +29°C° 0 mm 3 m/s 759 mmHg 72%
    09:00 +30°C° 0 mm 4 m/s 759 mmHg 68%
    10:00 +33°C° 0 mm 4 m/s 759 mmHg 64%
    11:00 +33°C° 0 mm 4 m/s 758 mmHg 61%
    12:00 +34°C° 0 mm 4 m/s 758 mmHg 58%
    13:00 +34°C° 0 mm 5 m/s 758 mmHg 55%
    14:00 +34°C° 0.1 mm 5 m/s 758 mmHg 59%
    15:00 +33°C° 0.1 mm 5 m/s 757 mmHg 62%
    16:00 +32°C° 0.1 mm 5 m/s 757 mmHg 65%
    17:00 +29°C° 0.3 mm 5 m/s 757 mmHg 71%
    18:00 +27°C° 0.3 mm 5 m/s 757 mmHg 77%
    19:00 +24°C° 0.3 mm 6 m/s 757 mmHg 82%
    20:00 +23°C° 0 mm 6 m/s 757 mmHg 84%
    21:00 +21°C° 0 mm 6 m/s 757 mmHg 85%
    22:00 +20°C° 0 mm 6 m/s 757 mmHg 87%
    23:00 +19°C° 0 mm 6 m/s 758 mmHg 87%

    Amanhã, 27 Junho, Quinta-feira

    Tempo Temperatura Precipitação Vento Pressão Humidade
    00:00 +19°C° 0 mm 6 m/s 758 mmHg 87%
    01:00 +17°C° 0 mm 6 m/s 758 mmHg 87%
    02:00 +17°C° 0 mm 6 m/s 758 mmHg 84%
    03:00 +16°C° 0 mm 6 m/s 758 mmHg 80%
    04:00 +15°C° 0 mm 6 m/s 758 mmHg 77%
    05:00 +15°C° 0 mm 6 m/s 758 mmHg 77%
    06:00 +15°C° 0 mm 7 m/s 758 mmHg 76%
    07:00 +15°C° 0 mm 7 m/s 758 mmHg 76%
    08:00 +16°C° 0 mm 7 m/s 758 mmHg 75%
    09:00 +17°C° 0 mm 7 m/s 758 mmHg 73%
    10:00 +17°C° 0 mm 7 m/s 759 mmHg 72%
    11:00 +18°C° 0 mm 7 m/s 759 mmHg 72%
    12:00 +18°C° 0 mm 7 m/s 759 mmHg 72%
    13:00 +20°C° 0 mm 6 m/s 759 mmHg 73%
    14:00 +19°C° 0 mm 6 m/s 759 mmHg 75%
    15:00 +19°C° 0 mm 5 m/s 759 mmHg 78%
    16:00 +19°C° 0 mm 5 m/s 759 mmHg 81%
    17:00 +19°C° 0 mm 4 m/s 759 mmHg 82%
    18:00 +19°C° 0 mm 3 m/s 759 mmHg 84%
    19:00 +19°C° 0 mm 3 m/s 759 mmHg 85%
    20:00 +18°C° 0 mm 2 m/s 759 mmHg 89%
    21:00 +16°C° 0 mm 1 m/s 760 mmHg 92%
    22:00 +15°C° 0 mm 1 m/s 760 mmHg 96%
    23:00 +15°C° 0 mm 1 m/s 760 mmHg 96%

    Depois de amanhã, 28 Junho, Sexta-feira

    Tempo Temperatura Precipitação Vento Pressão Humidade
    00:00 +15°C° 0 mm 1 m/s 760 mmHg 96%
    01:00 +15°C° 0 mm 1 m/s 760 mmHg 96%
    02:00 +15°C° 0 mm 1 m/s 760 mmHg 96%
    03:00 +14°C° 0 mm 1 m/s 760 mmHg 96%
    04:00 +14°C° 0 mm 1 m/s 760 mmHg 96%
    05:00 +16°C° 0 mm 2 m/s 760 mmHg 91%
    06:00 +18°C° 0 mm 2 m/s 760 mmHg 87%
    07:00 +19°C° 0 mm 2 m/s 760 mmHg 82%
    08:00 +20°C° 0 mm 3 m/s 760 mmHg 72%
    09:00 +21°C° 0 mm 4 m/s 761 mmHg 63%
    10:00 +22°C° 0 mm 5 m/s 761 mmHg 53%
    11:00 +22°C° 0 mm 5 m/s 761 mmHg 51%
    12:00 +22°C° 0 mm 5 m/s 761 mmHg 48%
    13:00 +22°C° 0 mm 5 m/s 761 mmHg 46%
    14:00 +22°C° 0 mm 5 m/s 761 mmHg 48%
    15:00 +22°C° 0 mm 4 m/s 761 mmHg 49%
    16:00 +22°C° 0 mm 4 m/s 761 mmHg 51%
    17:00 +21°C° 0 mm 3 m/s 761 mmHg 58%
    18:00 +20°C° 0 mm 2 m/s 761 mmHg 65%
    19:00 +19°C° 0 mm 2 m/s 761 mmHg 72%
    20:00 +17°C° 0 mm 2 m/s 761 mmHg 74%
    21:00 +16°C° 0 mm 1 m/s 761 mmHg 77%
    22:00 +14°C° 0 mm 1 m/s 761 mmHg 80%
    23:00 +14°C° 0 mm 1 m/s 761 mmHg 79%

    29 Junho, Sábado

    Tempo Temperatura Precipitação Vento Pressão Humidade
    00:00 +14°C° 0 mm 1 m/s 761 mmHg 78%
    01:00 +13°C° 0 mm 1 m/s 761 mmHg 78%
    02:00 +13°C° 0 mm 2 m/s 761 mmHg 80%
    03:00 +13°C° 0 mm 2 m/s 761 mmHg 82%
    04:00 +13°C° 0 mm 2 m/s 761 mmHg 84%
    05:00 +15°C° 0 mm 2 m/s 761 mmHg 80%
    06:00 +17°C° 0 mm 2 m/s 761 mmHg 76%
    07:00 +18°C° 0 mm 2 m/s 761 mmHg 71%
    08:00 +20°C° 0 mm 3 m/s 761 mmHg 67%
    09:00 +21°C° 0 mm 3 m/s 761 mmHg 63%
    10:00 +22°C° 0 mm 3 m/s 761 mmHg 60%
    11:00 +23°C° 0 mm 4 m/s 760 mmHg 59%
    12:00 +25°C° 0 mm 4 m/s 760 mmHg 58%
    13:00 +26°C° 0 mm 4 m/s 760 mmHg 57%
    14:00 +26°C° 0 mm 4 m/s 759 mmHg 58%
    15:00 +26°C° 0 mm 4 m/s 759 mmHg 58%
    16:00 +26°C° 0 mm 3 m/s 759 mmHg 59%
    17:00 +25°C° 0 mm 3 m/s 758 mmHg 65%
    18:00 +24°C° 0 mm 2 m/s 758 mmHg 71%
    19:00 +23°C° 0 mm 1 m/s 758 mmHg 77%
    20:00 +22°C° 0 mm 1 m/s 758 mmHg 81%
    21:00 +20°C° 0 mm 1 m/s 758 mmHg 85%
    22:00 +16°C° 0 mm 0 m/s 758 mmHg 89%
    23:00 +18°C° 0 mm 1 m/s 758 mmHg 89%

    30 Junho, Domingo

    Tempo Temperatura Precipitação Vento Pressão Humidade
    00:00 +18°C° 0 mm 1 m/s 758 mmHg 89%
    01:00 +17°C° 0 mm 2 m/s 757 mmHg 89%
    02:00 +17°C° 0 mm 2 m/s 757 mmHg 86%
    03:00 +17°C° 0 mm 3 m/s 757 mmHg 84%
    04:00 +17°C° 0 mm 3 m/s 757 mmHg 81%
    05:00 +19°C° 0 mm 3 m/s 757 mmHg 75%
    06:00 +20°C° 0 mm 4 m/s 756 mmHg 69%
    07:00 +22°C° 0 mm 4 m/s 756 mmHg 63%
    08:00 +25°C° 0 mm 5 m/s 756 mmHg 60%
    09:00 +26°C° 0 mm 5 m/s 756 mmHg 56%
    10:00 +28°C° 0 mm 6 m/s 756 mmHg 53%
    11:00 +29°C° 0 mm 6 m/s 755 mmHg 51%
    12:00 +30°C° 0 mm 6 m/s 755 mmHg 49%
    13:00 +30°C° 0 mm 6 m/s 754 mmHg 47%
    14:00 +30°C° 0 mm 6 m/s 754 mmHg 49%
    15:00 +32°C° 0 mm 5 m/s 753 mmHg 50%
    16:00 +32°C° 0 mm 5 m/s 753 mmHg 52%
    17:00 +29°C° 0 mm 5 m/s 753 mmHg 57%
    18:00 +28°C° 0 mm 4 m/s 752 mmHg 62%
    19:00 +27°C° 0 mm 4 m/s 752 mmHg 67%
    20:00 +25°C° 0 mm 4 m/s 752 mmHg 71%
    21:00 +22°C° 0 mm 4 m/s 753 mmHg 76%
    22:00 +20°C° 0 mm 4 m/s 753 mmHg 80%
    23:00 +19°C° 0 mm 4 m/s 753 mmHg 81%

    1 Julho, Segunda-feira

    Tempo Temperatura Precipitação Vento Pressão Humidade
    00:00 +17°C° 0 mm 3 m/s 754 mmHg 83%
    01:00 +16°C° 0 mm 3 m/s 754 mmHg 84%
    02:00 +16°C° 0 mm 3 m/s 754 mmHg 87%
    03:00 +14°C° 0 mm 3 m/s 754 mmHg 90%
    04:00 +14°C° 0 mm 3 m/s 754 mmHg 93%
    05:00 +15°C° 0 mm 4 m/s 754 mmHg 90%
    06:00 +15°C° 0 mm 4 m/s 754 mmHg 87%
    07:00 +17°C° 0 mm 4 m/s 755 mmHg 84%
    08:00 +18°C° 0 mm 4 m/s 755 mmHg 80%
    09:00 +19°C° 0 mm 5 m/s 755 mmHg 76%
    10:00 +20°C° 0 mm 5 m/s 755 mmHg 72%
    11:00 +21°C° 0 mm 5 m/s 754 mmHg 68%
    12:00 +21°C° 0 mm 5 m/s 754 mmHg 64%
    13:00 +22°C° 0 mm 5 m/s 754 mmHg 60%
    14:00 +22°C° 0 mm 4 m/s 753 mmHg 61%
    15:00 +23°C° 0 mm 4 m/s 753 mmHg 62%
    16:00 +23°C° 0 mm 4 m/s 753 mmHg 63%
    17:00 +21°C° 0.4 mm 4 m/s 752 mmHg 71%
    18:00 +20°C° 0.4 mm 3 m/s 752 mmHg 78%
    19:00 +19°C° 0.4 mm 3 m/s 752 mmHg 86%
    20:00 +18°C° 0.1 mm 3 m/s 752 mmHg 87%
    21:00 +17°C° 0.1 mm 3 m/s 752 mmHg 89%
    22:00 +16°C° 0.1 mm 3 m/s 752 mmHg 90%
    23:00 +14°C° 0 mm 4 m/s 753 mmHg 90%
    Mostrar mais